TimeCST,TemperatureF,Dew PointF,Humidity,Sea Level PressureIn,VisibilityMPH,Wind Direction,Wind SpeedMPH,Gust SpeedMPH,PrecipitationIn,Events,Conditions,WindDirDegrees,DateUTC
12:32 AM,17.6,8.6,68,29.91,9.0,West,20.7,29.9,0.00,Snow,Light Snow,280,2012-01-13 06:32:00
12:51 AM,18.0,9.0,68,29.97,9.0,West,16.1,28.8,0.00,Snow,Light Snow,280,2012-01-13 06:51:00
1:13 AM,19.4,8.6,63,29.92,9.0,West,18.4,-,0.00,Snow,Light Snow,280,2012-01-13 07:13:00
1:51 AM,19.0,8.1,62,29.99,9.0,West,23.0,29.9,0.00,Snow,Light Snow,280,2012-01-13 07:51:00
2:23 AM,17.6,6.8,63,29.94,9.0,West,21.9,28.8,0.00,Snow,Light Snow,280,2012-01-13 08:23:00
2:51 AM,18.0,7.0,62,30.00,9.0,West,19.6,28.8,0.00,,Scattered Clouds,280,2012-01-13 08:51:00
3:51 AM,17.1,7.0,65,30.01,10.0,WNW,17.3,27.6,N/A,,Partly Cloudy,290,2012-01-13 09:51:00
4:51 AM,17.1,7.0,65,30.02,10.0,WNW,17.3,27.6,N/A,,Partly Cloudy,290,2012-01-13 10:51:00
5:37 AM,17.6,6.8,63,29.99,10.0,WNW,18.4,-,N/A,,Mostly Cloudy,290,2012-01-13 11:37:00
5:51 AM,17.1,8.1,68,30.04,10.0,WNW,13.8,21.9,N/A,,Mostly Cloudy,290,2012-01-13 11:51:00
6:51 AM,17.6,8.6,68,30.01,7.0,West,17.3,-,N/A,Snow,Light Snow,280,2012-01-13 12:51:00
7:51 AM,18.0,10.0,71,30.08,8.0,West,13.8,-,0.00,Snow,Light Snow,280,2012-01-13 13:51:00
8:44 AM,19.4,10.4,68,30.05,8.0,West,16.1,-,0.00,Snow,Light Snow,280,2012-01-13 14:44:00
8:51 AM,19.0,10.0,68,30.11,8.0,West,12.7,-,0.00,,Mostly Cloudy,280,2012-01-13 14:51:00
9:32 AM,19.4,10.4,68,30.07,7.0,WNW,12.7,-,0.00,Snow,Light Snow,290,2012-01-13 15:32:00
9:51 AM,19.0,10.9,71,30.13,8.0,West,13.8,-,0.00,Snow,Light Snow,280,2012-01-13 15:51:00
10:51 AM,19.9,10.0,65,30.14,8.0,WNW,11.5,-,0.00,Snow,Light Snow,290,2012-01-13 16:51:00
11:51 AM,19.9,10.0,65,30.14,9.0,West,15.0,-,0.00,Snow,Light Snow,270,2012-01-13 17:51:00
12:51 PM,19.9,10.0,65,30.14,9.0,West,15.0,-,0.00,Snow,Light Snow,270,2012-01-13 18:51:00
1:51 PM,21.0,10.9,65,30.13,9.0,West,11.5,-,0.00,Snow,Light Snow,260,2012-01-13 19:51:00
2:51 PM,21.9,10.9,63,30.13,10.0,NNW,8.1,-,0.00,,Mostly Cloudy,330,2012-01-13 20:51:00
3:51 PM,21.9,10.9,63,30.15,10.0,NNW,6.9,-,N/A,,Partly Cloudy,330,2012-01-13 21:51:00
4:51 PM,19.9,10.0,65,30.17,10.0,NNW,5.8,-,N/A,,Partly Cloudy,330,2012-01-13 22:51:00
5:51 PM,19.0,9.0,65,30.18,10.0,Calm,Calm,-,N/A,,Partly Cloudy,0,2012-01-13 23:51:00
6:51 PM,18.0,9.0,68,30.19,10.0,Calm,Calm,-,N/A,,Partly Cloudy,0,2012-01-14 00:51:00
7:51 PM,17.1,9.0,71,30.19,10.0,Calm,Calm,-,N/A,,Partly Cloudy,0,2012-01-14 01:51:00
8:51 PM,16.0,10.0,77,30.20,10.0,Calm,Calm,-,N/A,,Partly Cloudy,0,2012-01-14 02:51:00
9:51 PM,17.1,10.9,77,30.20,10.0,Calm,Calm,-,N/A,,Partly Cloudy,0,2012-01-14 03:51:00
10:51 PM,16.0,10.0,77,30.20,10.0,Calm,Calm,-,N/A,,Partly Cloudy,0,2012-01-14 04:51:00
11:51 PM,15.1,9.0,77,30.19,10.0,ESE,3.5,-,N/A,,Partly Cloudy,110,2012-01-14 05:51:00